Regional Weather Roundup
Issued by NWS

Home | Current Version | Previous Version | Text Only | Print | Product List | Glossary On
Versions: 1 2 3 4 5 6 7 8 9 10 11 12 13 14 15 16 17 18 19 20 21 22 23 24 25 26 27 28 29 30 31 32 33 34 35 36 37 38 39 40 41 42 43 44 45 46 47 48 49 50
479
ASUS44 KJAN 211310
RWRMS

MISSISSIPPI HOURLY WEATHER ROUNDUP
NATIONAL WEATHER SERVICE JACKSON MS
800 AM CDT THU AUG 21 2014

NOTE: "FAIR: INDICATES FEW OR NO CLOUDS BELOW 12,000 FEET WITH NO
SIGNIFICANT WEATHER AND/OR OBSTRUCTIONS TO VISIBILITY.

MSZ001>002-007>008-010>013-018>021-025>028-034>036-211400-
NORTHWEST MISSISSIPPI

CITY           SKY/WX    TMP DP  RH WIND       PRES   REMARKS
CLARKSDALE     FAIR      77  75  94 CALM      30.12S
CLEVELAND      FAIR      76  73  91 S6        30.11F
GREENWOOD      SUNNY     77  74  90 S5        30.13R
GREENVILLE     SUNNY     77  73  87 S5        30.12R
GRENADA        FAIR      75  72  88 SW5       30.13S
OLIVE BRANCH   MOSUNNY   75  75 100 S8        30.12R
OXFORD         FAIR      75  72  88 W5        30.15R
TUNICA         SUNNY     77  72  83 S8        30.11S
$$

MSZ003>006-009-014>017-022>024-029>033-037>039-211400-
NORTHEAST MISSISSIPPI

CITY           SKY/WX    TMP DP  RH WIND       PRES   REMARKS
BELMONT        FAIR      76  73  88 SW7       30.14R
COLUMBUS AFB   SUNNY     79  73  83 W3        30.13S
CORINTH        FAIR      77  73  88 CALM      30.12R
GOLDN TRIANGLE SUNNY     77  70  78 CALM      30.13S
STARKVILLE     FAIR      75  72  88 CALM      30.14R
TUPELO         SUNNY     79  72  79 W3        30.13R
$$

MSZ040-058-211400-
CENTRAL MISSISSIPPI

CITY           SKY/WX    TMP DP  RH WIND       PRES   REMARKS
JACKSON INTL   SUNNY     78  72  81 CALM      30.15R
JACKSON HAWKNS SUNNY     79  72  79 CALM      30.16R
MERIDIAN KEY   SUNNY     77  72  84 CALM      30.15S
MERIDIAN NAS   SUNNY     78  72  81 CALM      30.15R
RAYMOND        FAIR      77  72  83 CALM      30.15S
VICKSBURG      MOSUNNY   78  74  87 CALM      30.13R
$$

MSZ059>079-211400-
SOUTH MISSISSIPPI

CITY           SKY/WX    TMP DP  RH WIND       PRES   REMARKS
BROOKHAVEN     FAIR      75  73  94 CALM      30.17R
HATTIESBURG    SUNNY     78  74  87 CALM      30.16R
MCCOMB         MOSUNNY   78  71  79 CALM      30.15R
NATCHEZ        PTSUNNY   79  73  83 SE3       30.15R
PINE BELT      SUNNY     77  72  83 W5        30.16S
$$

MSZ080>082-211400-
COASTAL MISSISSIPPI

CITY           SKY/WX    TMP DP  RH WIND       PRES   REMARKS
BAY ST LOUIS   SUNNY    N/A N/A N/A VRB3      30.15R
BILOXI         SUNNY     82  77  85 N1        30.14R
PASCAGOULA     SUNNY     81  77  88 N3        30.14R
GULFPORT       SUNNY     82  77  84 N3        30.14R HX  90
$$



USA.gov is the U.S. government's official web portal to all federal, state and local government web resources and services.